When you browse on this site, cookies collect data to enhance your experience and personalize the content and advertising you see.
Visit our Privacy Policy to learn more. By continuing to use the site, you agree to this use of cookies and data.
  • In Latvia
  • List of Countries
  • For 7 days
  • Water Temperature
  • Satellite Maps
  • Weather Map
  • Weather Widgets
  • user-avatar
    Login

    Hourly Weather Melbourne

    Today, 15 July, Monday

    Time Temperature Precipitation Wind Pressure Humidity
    00:00 +8°C° 0.5 mm 9 mps 760 mmHg 78%
    01:00 +8°C° 0.5 mm 9 mps 760 mmHg 79%
    02:00 +9°C° 0.3 mm 8 mps 760 mmHg 79%
    03:00 +9°C° 0.3 mm 7 mps 761 mmHg 79%
    04:00 +9°C° 0 mm 6 mps 762 mmHg 78%
    05:00 +8°C° 0.1 mm 6 mps 762 mmHg 79%
    06:00 +8°C° 0.1 mm 5 mps 763 mmHg 79%
    07:00 +8°C° 0.1 mm 5 mps 763 mmHg 80%
    08:00 +9°C° 0 mm 5 mps 764 mmHg 77%
    09:00 +9°C° 0 mm 5 mps 764 mmHg 74%
    10:00 +11°C° 0 mm 4 mps 765 mmHg 73%
    11:00 +12°C° 0 mm 4 mps 765 mmHg 72%
    12:00 +13°C° 0 mm 4 mps 764 mmHg 71%
    13:00 +13°C° 0 mm 4 mps 764 mmHg 70%
    14:00 +13°C° 0 mm 4 mps 764 mmHg 72%
    15:00 +14°C° 0 mm 4 mps 764 mmHg 74%
    16:00 +14°C° 0 mm 3 mps 764 mmHg 73%
    17:00 +13°C° 0 mm 4 mps 764 mmHg 77%
    18:00 +13°C° 0 mm 4 mps 765 mmHg 80%
    19:00 +12°C° 0 mm 4 mps 765 mmHg 84%
    20:00 +12°C° 0 mm 4 mps 765 mmHg 82%
    21:00 +12°C° 0 mm 4 mps 765 mmHg 81%
    22:00 +12°C° 0 mm 3 mps 765 mmHg 81%
    23:00 +12°C° 0 mm 3 mps 765 mmHg 81%

    Tomorrow, 16 July, Tuesday

    Time Temperature Precipitation Wind Pressure Humidity
    00:00 +12°C° 0 mm 3 mps 765 mmHg 81%
    01:00 +11°C° 0 mm 3 mps 765 mmHg 82%
    02:00 +11°C° 0 mm 4 mps 765 mmHg 82%
    03:00 +11°C° 0 mm 4 mps 765 mmHg 82%
    04:00 +11°C° 0 mm 4 mps 764 mmHg 82%
    05:00 +11°C° 0 mm 4 mps 764 mmHg 82%
    06:00 +11°C° 0 mm 4 mps 765 mmHg 82%
    07:00 +11°C° 0 mm 4 mps 765 mmHg 82%
    08:00 +10°C° 0 mm 5 mps 765 mmHg 79%
    09:00 +10°C° 0 mm 5 mps 765 mmHg 76%
    10:00 +12°C° 0 mm 5 mps 765 mmHg 74%
    11:00 +12°C° 0 mm 5 mps 765 mmHg 73%
    12:00 +10°C° 0 mm 5 mps 765 mmHg 72%
    13:00 +10°C° 0 mm 5 mps 764 mmHg 72%
    14:00 +11°C° 0 mm 4 mps 764 mmHg 73%
    15:00 +12°C° 0 mm 4 mps 764 mmHg 73%
    16:00 +12°C° 0 mm 4 mps 764 mmHg 74%
    17:00 +11°C° 0 mm 4 mps 764 mmHg 76%
    18:00 +11°C° 0 mm 4 mps 765 mmHg 78%
    19:00 +11°C° 0 mm 4 mps 765 mmHg 80%
    20:00 +10°C° 0 mm 4 mps 765 mmHg 80%
    21:00 +10°C° 0 mm 3 mps 765 mmHg 81%
    22:00 +10°C° 0 mm 3 mps 765 mmHg 82%
    23:00 +10°C° 0 mm 4 mps 764 mmHg 81%

    Day after tomorrow, 17 July, Wednesday

    Time Temperature Precipitation Wind Pressure Humidity
    00:00 +8°C° 0 mm 4 mps 764 mmHg 80%
    01:00 +8°C° 0 mm 4 mps 764 mmHg 79%
    02:00 +8°C° 0 mm 4 mps 764 mmHg 77%
    03:00 +9°C° 0 mm 3 mps 763 mmHg 75%
    04:00 +9°C° 0 mm 3 mps 763 mmHg 74%
    05:00 +9°C° 0 mm 3 mps 762 mmHg 73%
    06:00 +9°C° 0 mm 3 mps 762 mmHg 73%
    07:00 +9°C° 0 mm 3 mps 762 mmHg 73%
    08:00 +10°C° 0 mm 4 mps 762 mmHg 70%
    09:00 +10°C° 0 mm 4 mps 762 mmHg 68%
    10:00 +9°C° 0 mm 5 mps 762 mmHg 65%
    11:00 +10°C° 0 mm 5 mps 761 mmHg 63%
    12:00 +12°C° 0 mm 5 mps 760 mmHg 61%
    13:00 +12°C° 0 mm 5 mps 760 mmHg 60%
    14:00 +12°C° 0 mm 5 mps 759 mmHg 61%
    15:00 +12°C° 0 mm 5 mps 759 mmHg 62%
    16:00 +12°C° 0 mm 5 mps 758 mmHg 63%
    17:00 +10°C° 0.5 mm 5 mps 759 mmHg 69%
    18:00 +10°C° 0.5 mm 6 mps 759 mmHg 75%
    19:00 +9°C° 0.5 mm 6 mps 760 mmHg 81%
    20:00 +8°C° 0 mm 5 mps 760 mmHg 81%
    21:00 +8°C° 0 mm 5 mps 761 mmHg 81%
    22:00 +7°C° 0 mm 5 mps 762 mmHg 81%
    23:00 +7°C° 0 mm 4 mps 762 mmHg 82%

    18 July, Thursday

    Time Temperature Precipitation Wind Pressure Humidity
    00:00 +8°C° 0 mm 3 mps 762 mmHg 83%
    01:00 +7°C° 0 mm 3 mps 762 mmHg 84%
    02:00 +7°C° 0 mm 3 mps 762 mmHg 85%
    03:00 +7°C° 0 mm 3 mps 762 mmHg 86%
    04:00 +5°C° 0 mm 3 mps 762 mmHg 86%
    05:00 +5°C° 0 mm 3 mps 762 mmHg 86%
    06:00 +6°C° 0 mm 2 mps 763 mmHg 86%
    07:00 +5°C° 0 mm 2 mps 763 mmHg 87%
    08:00 +5°C° 0 mm 3 mps 763 mmHg 83%
    09:00 +7°C° 0 mm 3 mps 763 mmHg 79%
    10:00 +7°C° 0 mm 4 mps 763 mmHg 75%
    11:00 +8°C° 0 mm 4 mps 762 mmHg 69%
    12:00 +10°C° 0 mm 5 mps 762 mmHg 62%
    13:00 +12°C° 0 mm 5 mps 761 mmHg 56%
    14:00 +12°C° 0 mm 5 mps 761 mmHg 57%
    15:00 +12°C° 0 mm 5 mps 760 mmHg 59%
    16:00 +12°C° 0 mm 5 mps 760 mmHg 61%
    17:00 +12°C° 0 mm 5 mps 760 mmHg 65%
    18:00 +12°C° 0 mm 5 mps 760 mmHg 68%
    19:00 +10°C° 0 mm 6 mps 760 mmHg 71%
    20:00 +10°C° 0.1 mm 5 mps 760 mmHg 72%
    21:00 +10°C° 0.1 mm 5 mps 761 mmHg 74%
    22:00 +10°C° 0.1 mm 5 mps 761 mmHg 75%
    23:00 +10°C° 0.2 mm 5 mps 761 mmHg 78%

    19 July, Friday

    Time Temperature Precipitation Wind Pressure Humidity
    00:00 +11°C° 0.2 mm 4 mps 762 mmHg 80%
    01:00 +11°C° 0.2 mm 3 mps 762 mmHg 83%
    02:00 +10°C° 0 mm 3 mps 762 mmHg 84%
    03:00 +9°C° 0 mm 2 mps 763 mmHg 84%
    04:00 +8°C° 0 mm 2 mps 763 mmHg 85%
    05:00 +8°C° 0 mm 2 mps 763 mmHg 86%
    06:00 +8°C° 0 mm 2 mps 764 mmHg 87%
    07:00 +7°C° 0 mm 2 mps 764 mmHg 88%
    08:00 +8°C° 0 mm 2 mps 765 mmHg 83%
    09:00 +9°C° 0 mm 3 mps 765 mmHg 77%
    10:00 +10°C° 0 mm 3 mps 765 mmHg 72%
    11:00 +11°C° 0 mm 3 mps 765 mmHg 68%
    12:00 +12°C° 0 mm 3 mps 765 mmHg 63%
    13:00 +13°C° 0 mm 3 mps 764 mmHg 59%
    14:00 +13°C° 0 mm 3 mps 764 mmHg 61%
    15:00 +13°C° 0 mm 4 mps 764 mmHg 62%
    16:00 +13°C° 0 mm 4 mps 764 mmHg 63%
    17:00 +12°C° 0 mm 4 mps 764 mmHg 68%
    18:00 +11°C° 0 mm 4 mps 765 mmHg 72%
    19:00 +10°C° 0 mm 4 mps 765 mmHg 76%
    20:00 +11°C° 0 mm 4 mps 765 mmHg 76%
    21:00 +11°C° 0 mm 4 mps 765 mmHg 76%
    22:00 +11°C° 0 mm 4 mps 765 mmHg 75%
    23:00 +11°C° 0 mm 4 mps 765 mmHg 75%

    20 July, Saturday

    Time Temperature Precipitation Wind Pressure Humidity
    00:00 +11°C° 0 mm 4 mps 764 mmHg 75%
    01:00 +10°C° 0 mm 5 mps 764 mmHg 75%
    02:00 +10°C° 0 mm 5 mps 764 mmHg 77%
    03:00 +10°C° 0 mm 5 mps 763 mmHg 78%
    04:00 +9°C° 0 mm 5 mps 763 mmHg 80%
    05:00 +9°C° 0 mm 5 mps 763 mmHg 79%
    06:00 +9°C° 0 mm 6 mps 762 mmHg 77%
    07:00 +9°C° 0 mm 7 mps 762 mmHg 76%
    08:00 +10°C° 0 mm 7 mps 762 mmHg 73%
    09:00 +10°C° 0 mm 7 mps 762 mmHg 70%
    10:00 +11°C° 0 mm 8 mps 762 mmHg 67%
    11:00 +12°C° 0 mm 8 mps 761 mmHg 63%
    12:00 +12°C° 0 mm 8 mps 760 mmHg 59%
    13:00 +13°C° 0 mm 8 mps 759 mmHg 55%
    14:00 +13°C° 0 mm 8 mps 759 mmHg 55%
    15:00 +13°C° 0 mm 8 mps 758 mmHg 56%
    16:00 +13°C° 0 mm 8 mps 758 mmHg 56%
    17:00 +13°C° 0 mm 8 mps 757 mmHg 56%
    18:00 +13°C° 0 mm 8 mps 757 mmHg 57%
    19:00 +12°C° 0 mm 9 mps 757 mmHg 57%
    20:00 +12°C° 0 mm 9 mps 757 mmHg 57%
    21:00 +12°C° 0 mm 9 mps 756 mmHg 56%
    22:00 +12°C° 0 mm 8 mps 756 mmHg 55%
    23:00 +12°C° 0 mm 9 mps 756 mmHg 55%
    Show more